| time (UTC) | temp F | wind direction | speed MPH | gust MPH | rain 1hr in | rain 24hr in | rain mn in | humidity % | barometer mb |
| 20260510032003 | 53 | 123 | 0.0 | 49.0 | 0.00 | 0.00 | 0.00 | 60 | 1019.8 |
| 20260510031003 | 53 | 159 | 0.0 | 36.0 | 0.00 | 0.00 | 0.00 | 59 | 1019.7 |
| 20260510030004 | 53 | 123 | 15.0 | 118.0 | 0.00 | 0.00 | 0.00 | 59 | 1019.6 |
| 20260510025003 | 53 | 174 | 0.0 | 94.0 | 0.00 | 0.00 | 0.00 | 58 | 1019.1 |
| 20260510024003 | 53 | 117 | 21.0 | 134.0 | 0.00 | 0.00 | 0.00 | 57 | 1018.8 |
| 20260510023004 | 54 | 156 | 10.0 | 97.0 | 0.00 | 0.00 | 0.00 | 55 | 1018.8 |
| 20260510022003 | 54 | 162 | 14.0 | 89.0 | 0.00 | 0.00 | 0.00 | 55 | 1018.3 |
| 20260510021003 | 54 | 177 | 6.0 | 81.0 | 0.00 | 0.00 | 0.00 | 56 | 1018.2 |
| 20260510020214 | 54 | 186 | 40.0 | 81.0 | 0.00 | 0.00 | 0.00 | 56 | 1018.0 |
| 20260510015003 | 54 | 147 | 34.0 | 122.0 | 0.00 | 0.00 | 0.00 | 56 | 1017.6 |
| 20260510014004 | 54 | 135 | 41.0 | 122.0 | 0.00 | 0.00 | 0.00 | 58 | 1017.2 |
| 20260510013004 | 54 | 142 | 13.0 | 84.0 | 0.00 | 0.00 | 0.00 | 60 | 1017.2 |
| 20260510012004 | 54 | 132 | 24.0 | 127.0 | 0.00 | 0.00 | 0.00 | 61 | 1016.9 |
| 20260510011003 | 53 | 195 | 68.0 | 127.0 | 0.00 | 0.00 | 0.00 | 62 | 1016.6 |
| 20260510010004 | 53 | 106 | 1.0 | 118.0 | 0.00 | 0.00 | 0.00 | 64 | 1016.7 |
| 20260510005215 | 53 | 164 | 68.0 | 118.0 | 0.00 | 0.00 | 0.00 | 65 | 1016.5 |
| 20260510004003 | 54 | 161 | 62.0 | 122.0 | 0.00 | 0.00 | 0.00 | 64 | 1016.7 |
| 20260510003004 | 54 | 172 | 64.0 | 131.0 | 0.00 | 0.00 | 0.00 | 64 | 1016.7 |
| 20260510002004 | 55 | 175 | 57.0 | 112.0 | 0.00 | 0.00 | 0.00 | 64 | 1015.9 |
| 20260510001003 | 55 | 169 | 52.0 | 133.0 | 0.00 | 0.00 | 0.00 | 64 | 1015.9 |
| 20260510000215 | 55 | 169 | 40.0 | 121.0 | 0.00 | 0.00 | 0.00 | 62 | 1016.4 |
| 20260509235003 | 56 | 120 | 70.0 | 132.0 | 0.00 | 0.00 | 0.00 | 61 | 1016.2 |
| 20260509234003 | 57 | 149 | 25.0 | 110.0 | 0.00 | 0.00 | 0.00 | 61 | 1015.7 |
| 20260509233004 | 57 | 131 | 10.0 | 86.0 | 0.00 | 0.00 | 0.00 | 62 | 1015.9 |
| 20260509232004 | 58 | 146 | 47.0 | 105.0 | 0.00 | 0.00 | 0.00 | 61 | 1016.0 |
| 20260509231003 | 58 | 140 | 47.0 | 81.0 | 0.00 | 0.00 | 0.00 | 61 | 1016.1 |
| 20260509230004 | 59 | 140 | 4.0 | 32.0 | 0.00 | 0.00 | 0.00 | 61 | 1015.8 |
| 20260509225217 | 59 | 137 | 3.0 | 43.0 | 0.00 | 0.00 | 0.00 | 60 | 1015.7 |
| 20260509224004 | 60 | 137 | 10.0 | 43.0 | 0.00 | 0.00 | 0.00 | 61 | 1014.8 |
| 20260509223213 | 61 | 139 | 9.0 | 33.0 | 0.00 | 0.00 | 0.00 | 61 | 1015.1 |
| 20260509222004 | 62 | 132 | 8.0 | 32.0 | 0.00 | 0.00 | 0.00 | 61 | 1013.9 |
| 20260509221004 | 61 | 159 | 14.0 | 27.0 | 0.00 | 0.00 | 0.00 | 61 | 1013.4 |
| 20260509220003 | 60 | 175 | 3.0 | 29.0 | 0.00 | 0.00 | 0.00 | 62 | 1013.0 |
| 20260509215217 | 59 | 200 | 3.0 | 36.0 | 0.00 | 0.00 | 0.00 | 63 | 1013.2 |
| 20260509214003 | 59 | 194 | 5.0 | 49.0 | 0.00 | 0.00 | 0.00 | 61 | 1013.0 |
| 20260509213003 | 58 | 180 | 14.0 | 49.0 | 0.00 | 0.00 | 0.00 | 62 | 1013.0 |
| 20260509212003 | 57 | 197 | 4.0 | 49.0 | 0.00 | 0.00 | 0.00 | 70 | 1012.7 |
| 20260509211003 | 55 | 201 | 4.0 | 17.0 | 0.00 | 0.00 | 0.00 | 78 | 1012.4 |
| 20260509210003 | 52 | 180 | 4.0 | 39.0 | 0.00 | 0.00 | 0.00 | 84 | 1012.3 |
| 20260509205003 | 49 | 212 | 4.0 | 25.0 | 0.00 | 0.00 | 0.00 | 85 | 1011.7 |
| 20260509204003 | 46 | 222 | 2.0 | 17.0 | 0.00 | 0.00 | 0.00 | 83 | 1011.7 |
| 20260509203003 | 45 | 199 | 0.0 | 4.0 | 0.00 | 0.00 | 0.00 | 81 | 1011.4 |
| 20260509202004 | 44 | 225 | 0.0 | 4.0 | 0.00 | 0.00 | 0.00 | 81 | 1011.4 |
| 20260509201217 | 44 | 220 | 0.0 | 9.0 | 0.00 | 0.00 | 0.00 | 81 | 1011.2 |
| 20260509200004 | 44 | 208 | 0.0 | 11.0 | 0.00 | 0.00 | 0.00 | 81 | 1011.0 |
| 20260509195003 | 44 | 180 | 0.0 | 1.0 | 0.00 | 0.00 | 0.00 | 80 | 1010.9 |
| 20260509194004 | 44 | 218 | 0.0 | 17.0 | 0.00 | 0.00 | 0.00 | 80 | 1011.0 |
| 20260509193003 | 44 | 195 | 0.0 | 5.0 | 0.00 | 0.00 | 0.00 | 80 | 1010.9 |
| 20260509192003 | 44 | 225 | 0.0 | 3.0 | 0.00 | 0.00 | 0.00 | 80 | 1010.7 |
| 20260509191003 | 44 | 225 | 0.0 | 2.0 | 0.00 | 0.00 | 0.00 | 80 | 1010.6 |
| 20260509190004 | 44 | 197 | 0.0 | 2.0 | 0.00 | 0.00 | 0.00 | 80 | 1010.4 |
| 20260509185003 | 45 | 192 | 0.0 | 4.0 | 0.00 | 0.00 | 0.00 | 79 | 1010.4 |
| 20260509184004 | 45 | 180 | 0.0 | 3.0 | 0.00 | 0.00 | 0.00 | 79 | 1010.1 |
| 20260509183003 | 45 | 214 | 0.0 | 2.0 | 0.00 | 0.00 | 0.00 | 79 | 1010.3 |
| 20260509182003 | 46 | 237 | 0.0 | 9.0 | 0.00 | 0.00 | 0.00 | 79 | 1010.4 |
| 20260509181004 | 46 | 212 | 0.0 | 7.0 | 0.00 | 0.00 | 0.00 | 79 | 1010.3 |
| 20260509180214 | 46 | 273 | 1.0 | 4.0 | 0.00 | 0.00 | 0.00 | 79 | 1009.8 |
| 20260509175003 | 46 | 220 | 0.0 | 7.0 | 0.00 | 0.00 | 0.00 | 79 | 1009.8 |
| 20260509174216 | 46 | 225 | 0.0 | 11.0 | 0.00 | 0.00 | 0.00 | 79 | 1009.7 |
| 20260509173217 | 46 | 261 | 0.0 | 7.0 | 0.00 | 0.00 | 0.00 | 79 | 1009.7 |
| 20260509172003 | 46 | 0 | 0.0 | 0.0 | 0.00 | 0.00 | 0.00 | 79 | 1009.6 |
| 20260509171004 | 45 | 0 | 0.0 | 0.0 | 0.00 | 0.00 | 0.00 | 78 | 1009.5 |
| 20260509170004 | 45 | 0 | 0.0 | 0.0 | 0.00 | 0.00 | 0.00 | 78 | 1009.5 |
| 20260509165003 | 46 | 0 | 0.0 | 0.0 | 0.00 | 0.00 | 0.00 | 78 | 1009.7 |
| 20260509164003 | 46 | 0 | 0.0 | 0.0 | 0.00 | 0.00 | 0.00 | 78 | 1009.4 |
| 20260509163004 | 46 | 0 | 0.0 | 0.0 | 0.00 | 0.00 | 0.00 | 78 | 1009.2 |
| 20260509162003 | 46 | 0 | 0.0 | 0.0 | 0.00 | 0.00 | 0.00 | 78 | 1009.3 |
| 20260509161003 | 46 | 0 | 0.0 | 0.0 | 0.00 | 0.00 | 0.00 | 79 | 1009.5 |
| 20260509160215 | 46 | 0 | 0.0 | 0.0 | 0.00 | 0.00 | 0.00 | 79 | 1009.2 |
| 20260509155216 | 46 | 0 | 0.0 | 0.0 | 0.00 | 0.00 | 0.00 | 79 | 1009.3 |
| 20260509154003 | 47 | 0 | 0.0 | 0.0 | 0.00 | 0.00 | 0.00 | 79 | 1009.8 |
| 20260509153004 | 47 | 0 | 0.0 | 0.0 | 0.00 | 0.00 | 0.00 | 79 | 1009.4 |
| 20260509152214 | 47 | 0 | 0.0 | 0.0 | 0.00 | 0.00 | 0.00 | 80 | 1009.5 |
| 20260509151004 | 47 | 225 | 0.0 | 4.0 | 0.00 | 0.00 | 0.00 | 81 | 1009.7 |
| 20260509150004 | 47 | 0 | 0.0 | 0.0 | 0.00 | 0.00 | 0.00 | 82 | 1009.9 |
| 20260509145003 | 46 | 357 | 0.0 | 9.0 | 0.00 | 0.00 | 0.00 | 82 | 1010.1 |
| 20260509144213 | 46 | 353 | 0.0 | 9.0 | 0.00 | 0.00 | 0.00 | 80 | 1010.0 |
| 20260509143004 | 46 | 0 | 0.0 | 0.0 | 0.00 | 0.00 | 0.00 | 80 | 1010.4 |
| 20260509142003 | 46 | 0 | 0.0 | 0.0 | 0.00 | 0.00 | 0.00 | 80 | 1010.5 |
| 20260509141003 | 46 | 0 | 0.0 | 0.0 | 0.00 | 0.00 | 0.00 | 79 | 1010.6 |
| 20260509140005 | 46 | 0 | 0.0 | 0.0 | 0.00 | 0.00 | 0.00 | 79 | 1010.7 |
| 20260509135004 | 46 | 0 | 0.0 | 0.0 | 0.00 | 0.00 | 0.00 | 79 | 1010.7 |
| 20260509134003 | 46 | 0 | 0.0 | 0.0 | 0.00 | 0.00 | 0.00 | 79 | 1010.9 |
| 20260509133004 | 46 | 0 | 0.0 | 0.0 | 0.00 | 0.00 | 0.00 | 79 | 1011.0 |
| 20260509132004 | 47 | 0 | 0.0 | 0.0 | 0.00 | 0.00 | 0.00 | 80 | 1011.1 |
| 20260509131003 | 47 | 0 | 0.0 | 0.0 | 0.00 | 0.00 | 0.00 | 81 | 1011.3 |
| 20260509130004 | 47 | 0 | 0.0 | 0.0 | 0.00 | 0.00 | 0.00 | 81 | 1011.6 |
| 20260509125003 | 47 | 0 | 0.0 | 0.0 | 0.00 | 0.00 | 0.00 | 82 | 1011.5 |
| 20260509124214 | 47 | 0 | 0.0 | 0.0 | 0.00 | 0.00 | 0.00 | 82 | 1011.7 |
| 20260509123003 | 47 | 0 | 0.0 | 0.0 | 0.00 | 0.00 | 0.00 | 82 | 1011.6 |
| 20260509122004 | 47 | 0 | 0.0 | 0.0 | 0.00 | 0.00 | 0.00 | 82 | 1011.7 |
| 20260509121003 | 47 | 0 | 0.0 | 0.0 | 0.00 | 0.00 | 0.00 | 82 | 1011.8 |
| 20260509120004 | 47 | 0 | 0.0 | 0.0 | 0.00 | 0.00 | 0.00 | 82 | 1011.9 |
| 20260509115004 | 47 | 0 | 0.0 | 0.0 | 0.00 | 0.00 | 0.00 | 82 | 1011.7 |
| 20260509114004 | 47 | 0 | 0.0 | 0.0 | 0.00 | 0.00 | 0.00 | 82 | 1011.7 |
| 20260509113003 | 47 | 0 | 0.0 | 0.0 | 0.00 | 0.00 | 0.00 | 82 | 1012.0 |
| 20260509112216 | 47 | 0 | 0.0 | 0.0 | 0.00 | 0.00 | 0.00 | 82 | 1012.0 |
| 20260509111003 | 47 | 0 | 0.0 | 0.0 | 0.00 | 0.00 | 0.00 | 82 | 1011.9 |
| 20260509110213 | 47 | 0 | 0.0 | 0.0 | 0.00 | 0.00 | 0.00 | 82 | 1012.2 |
| 20260509105004 | 47 | 0 | 0.0 | 0.0 | 0.00 | 0.00 | 0.00 | 82 | 1012.0 |
| 20260509104004 | 47 | 0 | 0.0 | 0.0 | 0.00 | 0.00 | 0.00 | 82 | 1011.8 |
| 20260509103003 | 47 | 0 | 0.0 | 0.0 | 0.00 | 0.00 | 0.00 | 82 | 1011.5 |
| 20260509102003 | 48 | 0 | 0.0 | 0.0 | 0.00 | 0.00 | 0.00 | 82 | 1011.7 |
| 20260509101004 | 48 | 0 | 0.0 | 0.0 | 0.00 | 0.00 | 0.00 | 82 | 1011.6 |
| 20260509100004 | 48 | 0 | 0.0 | 0.0 | 0.00 | 0.00 | 0.00 | 81 | 1011.4 |
| 20260509095215 | 48 | 0 | 0.0 | 0.0 | 0.00 | 0.00 | 0.00 | 81 | 1011.5 |
| 20260509094004 | 49 | 0 | 0.0 | 0.0 | 0.00 | 0.00 | 0.00 | 81 | 1011.7 |
| 20260509093003 | 49 | 0 | 0.0 | 0.0 | 0.00 | 0.00 | 0.00 | 82 | 1011.2 |
| 20260509092003 | 49 | 0 | 0.0 | 0.0 | 0.00 | 0.00 | 0.00 | 82 | 1011.3 |
| 20260509091214 | 50 | 0 | 0.0 | 0.0 | 0.00 | 0.00 | 0.00 | 82 | 1011.5 |
| 20260509090003 | 50 | 0 | 0.0 | 0.0 | 0.00 | 0.00 | 0.00 | 81 | 1011.4 |
| 20260509085215 | 50 | 0 | 0.0 | 0.0 | 0.00 | 0.00 | 0.00 | 81 | 1011.5 |
| 20260509084004 | 51 | 0 | 0.0 | 0.0 | 0.00 | 0.00 | 0.00 | 81 | 1011.5 |
| 20260509083003 | 51 | 0 | 0.0 | 0.0 | 0.00 | 0.00 | 0.00 | 81 | 1011.4 |
| 20260509082003 | 51 | 0 | 0.0 | 0.0 | 0.00 | 0.00 | 0.00 | 80 | 1011.2 |
| 20260509081214 | 51 | 0 | 0.0 | 0.0 | 0.00 | 0.00 | 0.00 | 80 | 1011.3 |
| 20260509080004 | 51 | 0 | 0.0 | 0.0 | 0.00 | 0.00 | 0.00 | 80 | 1011.3 |
| 20260509075003 | 52 | 0 | 0.0 | 0.0 | 0.00 | 0.00 | 0.00 | 79 | 1011.4 |
| 20260509074004 | 52 | 0 | 0.0 | 0.0 | 0.00 | 0.00 | 0.00 | 79 | 1010.9 |
| 20260509073004 | 53 | 0 | 0.0 | 0.0 | 0.00 | 0.00 | 0.00 | 78 | 1010.9 |
| 20260509072003 | 53 | 0 | 0.0 | 0.0 | 0.00 | 0.00 | 0.00 | 78 | 1010.8 |
| 20260509071004 | 54 | 0 | 0.0 | 0.0 | 0.00 | 0.00 | 0.00 | 78 | 1010.5 |
| 20260509070216 | 54 | 0 | 0.0 | 0.0 | 0.00 | 0.00 | 0.00 | 78 | 1010.5 |
| 20260509065003 | 55 | 0 | 0.0 | 0.0 | 0.00 | 0.00 | 0.00 | 79 | 1010.5 |
| 20260509064003 | 56 | 0 | 0.0 | 0.0 | 0.00 | 0.00 | 0.00 | 78 | 1010.3 |
| 20260509063004 | 56 | 0 | 0.0 | 0.0 | 0.00 | 0.00 | 0.00 | 78 | 1010.4 |
| 20260509062003 | 56 | 360 | 0.0 | 1.0 | 0.00 | 0.00 | 0.00 | 78 | 1010.4 |
| 20260509061003 | 56 | 360 | 0.0 | 2.0 | 0.00 | 0.00 | 0.00 | 78 | 1010.6 |
| 20260509060216 | 56 | 336 | 0.0 | 4.0 | 0.00 | 0.00 | 0.00 | 78 | 1010.6 |
| 20260509055003 | 57 | 0 | 0.0 | 0.0 | 0.00 | 0.00 | 0.00 | 78 | 1010.4 |
| 20260509054004 | 57 | 0 | 0.0 | 0.0 | 0.00 | 0.00 | 0.00 | 79 | 1010.8 |
| 20260509053214 | 57 | 345 | 0.0 | 7.0 | 0.00 | 0.00 | 0.00 | 78 | 1010.8 |
| 20260509052215 | 57 | 354 | 0.0 | 14.0 | 0.00 | 0.00 | 0.00 | 77 | 1010.8 |
| 20260509051216 | 58 | 2 | 0.0 | 20.0 | 0.00 | 0.00 | 0.00 | 77 | 1010.5 |
| 20260509050004 | 58 | 341 | 3.0 | 20.0 | 0.00 | 0.00 | 0.00 | 76 | 1010.6 |
| 20260509045003 | 58 | 355 | 0.0 | 24.0 | 0.00 | 0.00 | 0.00 | 76 | 1010.7 |
| 20260509044003 | 58 | 360 | 0.0 | 1.0 | 0.00 | 0.00 | 0.00 | 76 | 1010.9 |
| 20260509043215 | 58 | 0 | 0.0 | 0.0 | 0.00 | 0.00 | 0.00 | 75 | 1010.7 |
| 20260509042216 | 59 | 0 | 0.0 | 0.0 | 0.00 | 0.00 | 0.00 | 75 | 1011.0 |
| 20260509041217 | 59 | 0 | 0.0 | 0.0 | 0.00 | 0.01 | 0.00 | 73 | 1010.8 |
| 20260509040004 | 60 | 0 | 0.0 | 0.0 | 0.00 | 0.01 | 0.00 | 72 | 1010.7 |
| 20260509035003 | 60 | 338 | 0.0 | 21.0 | 0.00 | 0.01 | 0.00 | 72 | 1010.8 |
| 20260509034215 | 61 | 343 | 2.0 | 22.0 | 0.00 | 0.01 | 0.00 | 71 | 1010.8 |
| 20260509033004 | 61 | 8 | 2.0 | 20.0 | 0.00 | 0.01 | 0.00 | 69 | 1010.8 |